EW7285 Weather Reports


Display with metric or nautical units.
time (UTC)temp
F
wind
direction
speed
MPH
gust
MPH
rain 1hr
in
rain 24hr
in
rain mn
in
humidity
%
barometer
mb
20211207190037 2 294 0.0 0.0 0.00 0.00 0.00 88 1017.7
20211207184539 2 294 0.0 0.0 0.00 0.00 0.00 88 1017.6
20211207183034 2 302 0.0 0.0 0.00 0.00 0.00 88 1017.4
20211207181514 2 303 0.0 0.0 0.00 0.00 0.00 88 1017.4
20211207180011 2 303 0.0 0.0 0.00 0.00 0.00 88 1017.2
20211207174511 2 302 0.0 0.0 0.00 0.00 0.00 88 1017.3
20211207171628 2 302 0.0 0.0 0.00 0.00 0.00 88 1017.1
20211207170110 3 296 0.0 0.0 0.00 0.00 0.00 88 1017.1
20211207164557 3 285 0.0 0.0 0.00 0.00 0.00 88 1016.9
20211207163117 3 285 0.0 0.0 0.00 0.00 0.00 88 1016.9
20211207161608 3 285 0.0 0.0 0.00 0.00 0.00 88 1017.0
20211207160153 3 285 0.0 0.0 0.00 0.00 0.00 88 1017.0
20211207155225 4 285 0.0 0.0 0.00 0.00 0.00 88 1017.1
20211207153112 4 285 0.0 0.0 0.00 0.00 0.00 88 1017.1
20211207151555 5 285 0.0 0.0 0.00 0.00 0.00 88 1017.2
20211207150030 5 280 0.0 0.0 0.00 0.00 0.00 89 1017.3
20211207144514 5 288 0.0 0.0 0.00 0.00 0.00 89 1017.2
20211207143007 6 315 0.0 0.0 0.00 0.00 0.00 89 1017.1
20211207141504 6 315 0.0 0.0 0.00 0.00 0.00 89 1017.0
20211207140225 7 315 0.0 0.0 0.00 0.00 0.00 88 1017.1
20211207134601 7 315 0.0 0.0 0.00 0.00 0.00 88 1017.0
20211207133138 8 314 0.0 0.0 0.00 0.00 0.00 89 1016.9
20211207131650 8 312 0.0 0.0 0.00 0.00 0.00 88 1016.8
20211207130101 9 348 0.0 0.0 0.00 0.00 0.00 88 1016.7
20211207124604 10 281 0.0 0.0 0.00 0.00 0.00 88 1016.7
20211207123108 10 281 0.0 0.0 0.00 0.00 0.00 89 1016.6
20211207121533 10 281 0.0 0.0 0.00 0.00 0.00 89 1016.6
20211207120028 9 275 2.0 3.0 0.00 0.00 0.00 88 1016.8
20211207114521 9 267 2.0 3.0 0.00 0.00 0.00 88 1016.9
20211207113046 8 273 1.0 2.0 0.00 0.00 0.00 88 1016.7
20211207111541 8 284 0.0 2.0 0.00 0.00 0.00 89 1016.7
20211207110009 7 272 1.0 3.0 0.00 0.00 0.00 88 1016.9
20211207104503 6 285 0.0 2.0 0.00 0.00 0.00 88 1016.8
20211207103127 6 287 0.0 0.0 0.00 0.00 0.00 88 1016.8
20211207101606 4 287 0.0 0.0 0.00 0.00 0.00 89 1017.0
20211207100108 3 287 0.0 0.0 0.00 0.00 0.00 88 1017.0
20211207094706 2 287 0.0 0.0 0.00 0.00 0.00 89 1017.0
20211207093127 0 288 0.0 0.0 0.00 0.00 0.00 88 1016.9
20211207091633 0 287 0.0 0.0 0.00 0.00 0.00 87 1016.9
20211207090035 -1 287 0.0 0.0 0.00 0.00 0.00 87 1017.0
20211207084542 -1 288 0.0 0.0 0.00 0.00 0.00 87 1017.0
20211207083050 -2 288 0.0 0.0 0.00 0.00 0.00 87 1016.8
20211207081529 -2 288 0.0 0.0 0.00 0.00 0.00 86 1016.7
20211207080045 -2 288 0.0 0.0 0.00 0.00 0.00 87 1016.7
20211207074536 -3 288 0.0 0.0 0.00 0.00 0.00 87 1016.7
20211207073013 -3 288 0.0 0.0 0.00 0.00 0.00 87 1016.5
20211207071501 -3 288 0.0 0.0 0.00 0.00 0.00 86 1016.4
20211207070229 -3 288 0.0 0.0 0.00 0.00 0.00 87 1016.6
20211207064621 -4 288 0.0 0.0 0.00 0.00 0.00 86 1016.6
20211207063145 -3 288 0.0 0.0 0.00 0.00 0.00 86 1016.4
20211207061712 -3 288 0.0 0.0 0.00 0.00 0.00 86 1016.4
20211207060135 -3 288 0.0 0.0 0.00 0.00 0.00 86 1016.4
20211207054616 -3 288 0.0 0.0 0.00 0.00 0.00 86 1016.5
20211207053040 -3 288 0.0 0.0 0.00 0.00 0.00 86 1016.6
20211207051553 -3 288 0.0 0.0 0.00 0.00 0.00 87 1016.6
20211207050059 -3 288 0.0 0.0 0.00 0.00 0.00 87 1016.6
20211207044606 -2 288 0.0 0.0 0.00 0.00 0.00 87 1016.4
20211207043050 -3 288 0.0 0.0 0.00 0.00 0.00 87 1016.6
20211207041520 -3 286 0.0 0.0 0.00 0.00 0.00 87 1016.7
20211207040013 -3 286 0.0 0.0 0.00 0.00 0.00 86 1016.6
20211207034509 -3 286 0.0 0.0 0.00 0.00 0.00 86 1016.6
20211207033044 -3 286 0.0 0.0 0.00 0.00 0.00 86 1016.6
20211207031706 -3 282 0.0 0.0 0.00 0.00 0.00 86 1016.5
20211207030111 -3 282 0.0 0.0 0.00 0.00 0.00 87 1016.5
20211207024555 -3 282 0.0 0.0 0.00 0.00 0.00 87 1016.7
20211207023251 -3 282 0.0 0.0 0.00 0.00 0.00 86 1016.7
20211207021604 -3 282 0.0 0.0 0.00 0.00 0.00 87 1016.6
20211207020201 -3 282 0.0 0.0 0.00 0.00 0.00 86 1016.7
20211207014550 -4 282 0.0 0.0 0.00 0.00 0.00 87 1016.7
20211207013029 -4 282 0.0 0.0 0.00 0.00 0.00 86 1016.7
20211207011619 -3 282 0.0 0.0 0.00 0.00 0.00 86 1016.8
20211207010044 -3 282 0.0 0.0 0.00 0.00 0.00 86 1016.7
20211207004516 -3 282 0.0 0.0 0.00 0.00 0.00 86 1016.8
20211207003013 -3 282 0.0 0.0 0.00 0.00 0.00 87 1016.9
20211207001511 -3 282 0.0 0.0 0.00 0.00 0.00 86 1016.9
20211207000025 -2 282 0.0 0.0 0.00 0.00 0.00 87 1017.0
20211206234502 -3 282 0.0 0.0 0.00 0.00 0.00 86 1017.2
20211206233106 -2 282 0.0 0.0 0.00 0.00 0.00 87 1017.2
20211206231643 -3 282 0.0 0.0 0.00 0.00 0.00 87 1017.3
20211206230120 -2 282 0.0 0.0 0.00 0.00 0.00 87 1017.3
20211206224551 -2 280 0.0 0.0 0.00 0.00 0.00 87 1017.4
20211206223118 -2 280 0.0 0.0 0.00 0.00 0.00 87 1017.5
20211206221544 -2 280 0.0 0.0 0.00 0.00 0.00 87 1017.6
20211206220047 -2 280 0.0 0.0 0.00 0.00 0.00 87 1017.6
20211206214544 -2 279 0.0 0.0 0.00 0.00 0.00 87 1017.6
20211206213050 -1 279 0.0 0.0 0.00 0.00 0.00 87 1017.5
20211206211518 -1 279 0.0 0.0 0.00 0.00 0.00 87 1017.7
20211206210025 -1 280 0.0 0.0 0.00 0.00 0.00 87 1017.7
20211206204517 -1 279 0.0 0.0 0.00 0.00 0.00 87 1017.7
20211206203014 -1 281 0.0 0.0 0.00 0.00 0.00 87 1017.7
20211206201601 -1 286 0.0 0.0 0.00 0.00 0.00 87 1017.7
20211206200222 -1 290 0.0 0.0 0.00 0.00 0.00 87 1017.8
20211206194621 0 288 0.0 0.0 0.00 0.00 0.00 88 1017.8
20211206193110 0 305 0.0 0.0 0.00 0.00 0.00 87 1017.9
20211206191630 0 305 0.0 0.0 0.00 0.00 0.00 87 1017.9